User: anonymous   Login
Location: Bermeries
(50.2863°N, 3.7551°E)
Time: 08:27:00
(UTC+00:00)
Language:

Cosmos 1242 Rocket - Orbit

View from above orbital plane
View from above orbital plane
View from above satellite
View from above satellite

Ground track
Ground track

The orbit data is extracted from the following two-line orbital elements,

1 12155U 81008B   24204.17978120  .00230131  18410-4  71228-3 0  9999
2 12155  81.1382 187.1631 0006054  91.4741 268.7222 15.91580459390881
Epoch (UTC): 22 July 2024 04:18:53
Eccentricity: 0.0006054
inclination: 81.1382°
perigee height: 294 km
apogee height: 302 km
right ascension of ascending node: 187.1631°
argument of perigee: 91.4741°
revolutions per day: 15.91580459
mean anomaly at epoch: 268.7222°
orbit number at epoch: 39088

The dashed part of the orbit path shows where the satellite is in the earth's shadow,  

DLR